EW6987 Weather Reports


time (UTC)temp
C
wind
direction
speed
KPH
gust
KPH
rain 1hr
cm
rain 24hr
cm
rain mn
cm
humidity
%
barometer
mb
20260502170110 8 273 3.2 6.4 0.00 0.30 0.20 58 1024.2
20260502163110 7 262 1.6 6.4 0.00 0.36 0.20 64 1024.5
20260502161525 7 223 1.6 4.8 0.00 0.36 0.20 64 1024.5
20260502160112 6 299 3.2 6.4 0.00 0.36 0.20 68 1024.6
20260502151524 6 330 3.2 9.7 0.00 0.41 0.20 70 1024.4
20260502150110 6 360 3.2 11.3 0.00 0.41 0.20 70 1024.1
20260502140108 6 346 4.8 12.9 0.00 0.58 0.20 75 1023.7
20260502123137 5 293 6.4 14.5 0.00 0.76 0.20 81 1023.6
20260502121553 5 9 3.2 9.7 0.00 0.76 0.20 80 1023.7
20260502120133 5 304 4.8 12.9 0.00 0.76 0.20 80 1023.5
20260502114617 4 295 1.6 11.3 0.00 1.12 0.20 81 1023.3
20260502113032 4 307 6.4 11.3 0.00 1.12 0.20 81 1023.3
20260502111633 4 15 3.2 12.9 0.00 1.12 0.20 81 1023.2
20260502110038 4 358 3.2 11.3 0.00 1.12 0.20 81 1023.0
20260502104620 4 8 4.8 12.9 0.00 1.50 0.20 81 1022.9
20260502103038 4 344 3.2 11.3 0.00 1.50 0.20 83 1022.7
20260502101610 4 318 6.4 11.3 0.00 1.50 0.20 82 1022.7
20260502100131 4 29 3.2 12.9 0.00 1.50 0.20 83 1022.7
20260502091507 4 359 3.2 14.5 0.00 1.73 0.20 84 1022.4
20260502071517 5 247 0.0 0.0 0.00 1.80 0.00 88 1021.8
20260502070129 6 245 0.0 3.2 0.00 1.80 0.00 84 1021.7
20260502064537 6 302 0.0 4.8 0.00 1.80 0.00 83 1021.7
20260502063045 6 108 0.0 3.2 0.00 1.80 0.00 83 1021.7
20260502061507 6 3 0.0 4.8 0.00 1.80 0.00 85 1022.0
20260502060027 5 322 1.6 4.8 0.00 1.80 0.00 87 1022.1
20260502054532 5 44 0.0 3.2 0.00 1.80 0.00 87 1022.2
20260502053107 5 129 0.0 1.6 0.00 1.80 0.00 87 1022.2
20260502051522 5 129 0.0 1.6 0.00 1.80 0.00 88 1022.4
20260502050059 5 186 0.0 3.2 0.00 1.80 0.00 88 1022.4
20260502044513 5 94 0.0 4.8 0.00 1.80 0.00 87 1022.3
20260502043037 5 26 0.0 4.8 0.00 1.80 0.00 87 1022.5
20260502041515 5 67 1.6 12.9 0.00 1.80 0.00 88 1022.5
20260502040056 5 20 1.6 11.3 0.00 1.80 0.00 89 1022.4
20260502034515 5 100 6.4 14.5 0.00 1.80 1.80 90 1022.2
20260502033058 5 295 6.4 14.5 0.00 1.80 1.80 90 1022.3
20260502031504 5 255 4.8 17.7 0.00 1.80 1.80 89 1022.1
20260502030041 6 11 8.0 17.7 0.00 1.80 1.80 90 1022.0
20260502024503 5 304 0.0 0.0 0.00 1.80 1.80 91 1022.0
20260502023053 6 23 0.0 0.0 0.00 1.80 1.80 91 1021.9
20260502021516 6 23 0.0 0.0 0.00 1.80 1.80 90 1022.0
20260502020057 6 23 0.0 0.0 0.00 1.80 1.80 89 1021.9
20260502014631 6 23 0.0 0.0 0.00 1.80 1.80 88 1021.7
20260502013023 6 321 0.0 0.0 0.05 1.80 1.80 87 1021.4
20260502011604 6 267 0.0 6.4 0.05 1.80 1.80 85 1021.3
20260502010013 6 307 4.8 19.3 0.05 1.80 1.80 86 1021.4
20260502004611 6 39 4.8 14.5 0.05 1.80 1.80 84 1021.2
20260502003015 7 238 0.0 8.0 0.00 1.75 1.75 77 1020.9
20260502001549 7 174 1.6 11.3 0.00 1.75 1.75 79 1020.6
20260502000133 8 226 0.0 4.8 0.00 1.75 1.75 78 1020.5
20260501234547 8 221 0.0 0.0 0.00 1.75 1.75 74 1020.5
20260501233042 8 221 0.0 3.2 0.00 1.75 1.75 73 1020.4
20260501231631 8 216 0.0 3.2 0.00 1.75 1.75 72 1020.4
20260501230029 8 213 0.0 4.8 0.00 1.75 1.75 71 1020.4
20260501224616 8 247 1.6 6.4 0.00 1.75 1.75 70 1020.4
20260501223032 8 242 0.0 4.8 0.00 1.75 1.75 69 1020.5
20260501221618 8 240 1.6 6.4 0.00 1.75 1.75 70 1020.4
20260501220053 8 258 0.0 4.8 0.00 1.75 1.75 71 1020.4
20260501211553 8 243 0.0 0.0 0.00 1.75 1.75 74 1020.1
20260501210045 8 243 0.0 3.2 0.00 1.75 1.75 74 1020.0
20260501204601 8 254 0.0 3.2 0.00 1.75 1.75 76 1019.9
20260501203112 8 304 0.0 4.8 0.00 1.75 1.75 78 1020.0
20260501201529 8 318 0.0 1.6 0.00 1.75 1.75 79 1019.8
20260501200119 7 229 0.0 3.2 0.00 1.75 1.75 81 1019.8
20260501194514 7 250 0.0 1.6 0.00 1.75 1.75 82 1020.0
20260501193021 7 273 0.0 4.8 0.00 1.75 1.75 85 1020.0
20260501191621 7 333 0.0 6.4 0.00 1.75 1.75 85 1019.9
20260501190052 7 3 3.2 11.3 0.05 1.75 1.75 85 1019.9
20260501184610 7 347 1.6 4.8 0.05 1.75 1.75 86 1019.6
20260501183025 6 235 1.6 9.7 0.05 1.75 1.75 89 1019.5
20260501181624 6 217 3.2 16.1 0.05 1.75 1.75 88 1019.5
20260501180107 7 308 4.8 14.5 0.00 1.70 1.70 85 1019.3
20260501174527 7 9 1.6 11.3 0.00 1.70 1.70 86 1019.3
20260501173137 6 346 0.0 8.0 0.00 1.70 1.70 87 1019.2
20260501171619 6 329 4.8 12.9 0.00 1.70 1.70 85 1019.2